Weather History for Crestview, FL

Change the Weather History Date:

Monday, August 4, 2014

  Actual Average Record
Temperature  
Mean Temperature 80 °F -  
Max Temperature 90 °F 92 °F 99 °F (1951)
Min Temperature 70 °F 71 °F 64 °F (1998)
Cooling Degree Days 15    
Growing Degree Days 30 (Base 50)    
Moisture  
Dew Point 72 °F    
Average Humidity 77    
Maximum Humidity 94    
Minimum Humidity 55    
Precipitation  
Precipitation 0.00 in - - ()
Sea Level Pressure  
Sea Level Pressure 29.99 in    
Wind  
Wind Speed 3 mph (NE)    
Max Wind Speed 7 mph    
Max Gust Speed -    
Visibility 10 miles    
Events      
Averages and records for this station are not official NWS values.
T = Trace of Precipitation, MM = Missing Value Source: NWS Daily Summary

Daily Weather History Graph

Daily Weather History Graph

Search for Another Location

Airport:

Trip Planner

Search our weather history database for the weather conditions in past years. The results will help you decide how hot, cold, wet, or windy it might be!

Date:

Astronomy

Aug. 04, 2014 Rise Set
Actual Time 6:05 AM CDT 7:38 PM CDT
Civil Twilight 5:39 AM CDT 8:04 PM CDT
Nautical Twilight 5:08 AM CDT 8:35 PM CDT
Astronomical Twilight 4:35 AM CDT 9:07 PM CDT
Moon 1:51 PM CDT (8/4) 12:08 AM CDT (8/4)
Length of Visible Light 14h 24m
Length of Day
13h 32m
First Quarter, 57% of the Moon is Illuminated
Aug 4
First Quarter
Aug 10
Full
Aug 17
Last Quarter
Aug 25
New
Sep 2
First Quarter

Hourly Weather History & Observations

Time (CDT) Temp. Heat Index Dew Point Humidity Pressure Visibility Wind Dir Wind Speed Gust Speed Precip Events Conditions
12:53 AM 73.0 °F - 70.0 °F 90% 29.98 in 10.0 mi NNE 5.8 mph - N/A   Partly Cloudy
1:53 AM 73.0 °F - 68.0 °F 84% 29.98 in 10.0 mi Calm Calm - N/A   Clear
2:53 AM 72.0 °F - 68.0 °F 87% 29.99 in 10.0 mi NNE 3.5 mph - N/A   Clear
4:53 AM 71.1 °F - 68.0 °F 90% 29.99 in 10.0 mi Calm Calm - N/A   Clear
5:53 AM 70.0 °F - 68.0 °F 93% 29.99 in 9.0 mi Calm Calm - N/A   Clear
6:53 AM 73.0 °F - 70.0 °F 90% 30.01 in 9.0 mi Calm Calm - N/A   Clear
7:53 AM 77.0 °F - 71.1 °F 82% 30.02 in 10.0 mi NE 3.5 mph - N/A   Clear
8:53 AM 82.0 °F 87.4 °F 73.0 °F 74% 30.02 in 10.0 mi North 3.5 mph - N/A   Clear
9:53 AM 84.9 °F 92.1 °F 73.9 °F 69% 30.03 in 10.0 mi NE 4.6 mph - N/A   Clear
10:53 AM 88.0 °F 95.6 °F 73.0 °F 61% 30.03 in 10.0 mi Variable 5.8 mph - N/A   Clear
11:53 AM 90.0 °F 96.9 °F 72.0 °F 55% 30.01 in 10.0 mi NE 5.8 mph - N/A   Clear
12:53 PM 88.0 °F 95.6 °F 73.0 °F 61% 29.99 in 10.0 mi Variable 6.9 mph - N/A   Scattered Clouds
1:53 PM 90.0 °F 96.9 °F 72.0 °F 55% 29.97 in 10.0 mi North 4.6 mph - N/A   Scattered Clouds
2:53 PM 88.0 °F 95.6 °F 73.0 °F 61% 29.96 in 10.0 mi East 4.6 mph - N/A   Scattered Clouds
3:53 PM 87.1 °F 96.3 °F 75.0 °F 67% 29.95 in 10.0 mi East 3.5 mph - N/A   Clear
4:53 PM 87.1 °F 96.3 °F 75.0 °F 67% 29.95 in 10.0 mi Calm Calm - N/A   Clear
5:53 PM 86.0 °F 95.1 °F 75.0 °F 70% 29.96 in 10.0 mi East 3.5 mph - N/A   Clear
6:53 PM 84.9 °F 93.3 °F 75.0 °F 72% 29.97 in 10.0 mi Calm Calm - N/A   Clear
7:53 PM 82.0 °F 88.6 °F 75.0 °F 79% 29.98 in 10.0 mi SSE 3.5 mph - N/A   Clear
8:53 PM 80.1 °F 85.1 °F 75.0 °F 85% 30.00 in 10.0 mi Calm Calm - N/A   Clear
9:53 PM 78.1 °F - 73.9 °F 87% 30.02 in 10.0 mi Calm Calm - N/A   Clear
10:53 PM 75.0 °F - 73.0 °F 94% 30.02 in 7.0 mi Calm Calm - N/A   Clear
11:53 PM 73.9 °F - 72.0 °F 93% 30.01 in 6.0 mi Calm Calm - N/A   Clear